Time,TemperatureF,DewpointF,PressureIn,WindDirection,WindDirectionDegrees,WindSpeedMPH,WindSpeedGustMPH,Humidity,HourlyPrecipIn,Conditions,Clouds,dailyrainin,SoftwareType,DateUTC
2013-03-19 00:11:00,7.0,-1.0,29.71,WSW,247,3.2,-999.0,69,-99.99,,,0.00,Acu-Link.com,2013-03-19 05:11:00,
2013-03-19 00:57:00,6.6,-1.1,29.72,North,0,1.7,-999.0,70,-99.99,,,0.00,Acu-Link.com,2013-03-19 05:57:00,
2013-03-19 01:12:00,6.6,-1.1,29.72,SSW,202,2.2,-999.0,70,-99.99,,,0.00,Acu-Link.com,2013-03-19 06:12:00,
2013-03-19 01:27:00,6.8,-1.2,29.72,NNW,337,2.7,-999.0,69,-99.99,,,0.00,Acu-Link.com,2013-03-19 06:27:00,
2013-03-19 01:42:00,6.6,-1.4,29.72,ESE,112,2.2,-999.0,69,-99.99,,,0.00,Acu-Link.com,2013-03-19 06:42:00,
2013-03-19 01:58:00,6.4,-1.6,29.73,ESE,112,3.7,-999.0,69,-99.99,,,0.00,Acu-Link.com,2013-03-19 06:58:00,
2013-03-19 02:13:00,6.4,-1.3,29.73,SW,225,2.7,-999.0,70,-99.99,,,0.00,Acu-Link.com,2013-03-19 07:13:00,
2013-03-19 02:28:00,6.4,-1.3,29.73,NNW,337,2.7,-999.0,70,-99.99,,,0.00,Acu-Link.com,2013-03-19 07:28:00,
2013-03-19 02:43:00,7.2,-0.5,29.74,ESE,112,4.7,-999.0,70,-99.99,,,0.00,Acu-Link.com,2013-03-19 07:43:00,
2013-03-19 02:58:00,6.1,-1.6,29.75,SW,225,3.7,-999.0,70,-99.99,,,0.00,Acu-Link.com,2013-03-19 07:58:00,
2013-03-19 03:14:00,6.1,-1.6,29.75,SSW,202,2.2,-999.0,70,-99.99,,,0.00,Acu-Link.com,2013-03-19 08:14:00,
2013-03-19 03:29:00,5.7,-1.9,29.75,WSW,247,0.0,-999.0,70,-99.99,,,0.00,Acu-Link.com,2013-03-19 08:29:00,
2013-03-19 03:44:00,5.5,-2.1,29.75,North,0,1.7,-999.0,70,-99.99,,,0.00,Acu-Link.com,2013-03-19 08:44:00,
2013-03-19 03:59:00,5.0,-2.6,29.76,North,0,3.2,-999.0,70,-99.99,,,0.00,Acu-Link.com,2013-03-19 08:59:00,
2013-03-19 04:15:00,4.6,-3.0,29.77,North,0,3.7,-999.0,70,-99.99,,,0.00,Acu-Link.com,2013-03-19 09:15:00,
2013-03-19 04:30:00,4.3,-3.3,29.77,NNW,337,1.7,-999.0,70,-99.99,,,0.00,Acu-Link.com,2013-03-19 09:30:00,
2013-03-19 04:45:00,4.3,-3.3,29.79,NNW,337,1.1,-999.0,70,-99.99,,,0.00,Acu-Link.com,2013-03-19 09:45:00,
2013-03-19 05:00:00,3.9,-3.7,29.78,NNW,337,1.7,-999.0,70,-99.99,,,0.00,Acu-Link.com,2013-03-19 10:00:00,
2013-03-19 05:15:00,3.9,-3.7,29.79,NNW,337,2.7,-999.0,70,-99.99,,,0.00,Acu-Link.com,2013-03-19 10:15:00,
2013-03-19 05:31:00,3.9,-3.7,29.79,South,180,2.2,-999.0,70,-99.99,,,0.00,Acu-Link.com,2013-03-19 10:31:00,
2013-03-19 05:46:00,3.7,-4.2,29.80,North,0,2.7,-999.0,69,-99.99,,,0.00,Acu-Link.com,2013-03-19 10:46:00,
2013-03-19 06:01:00,3.6,-4.3,29.80,North,0,1.7,-999.0,69,-99.99,,,0.00,Acu-Link.com,2013-03-19 11:01:00,
2013-03-19 06:16:00,3.2,-4.6,29.82,NNW,337,3.7,-999.0,69,-99.99,,,0.00,Acu-Link.com,2013-03-19 11:16:00,
2013-03-19 06:31:00,2.8,-5.0,29.83,NE,45,3.7,-999.0,69,-99.99,,,0.00,Acu-Link.com,2013-03-19 11:31:00,
2013-03-19 06:47:00,2.3,-5.5,29.84,WNW,292,0.0,-999.0,69,-99.99,,,0.00,Acu-Link.com,2013-03-19 11:47:00,
2013-03-19 07:02:00,1.4,-6.1,29.85,North,0,2.2,-999.0,70,-99.99,,,0.00,Acu-Link.com,2013-03-19 12:02:00,
2013-03-19 07:17:00,1.0,-6.5,29.86,SSW,202,2.7,-999.0,70,-99.99,,,0.00,Acu-Link.com,2013-03-19 12:17:00,
2013-03-19 07:33:00,0.9,-6.6,29.87,ESE,112,2.7,-999.0,70,-99.99,,,0.00,Acu-Link.com,2013-03-19 12:33:00,
2013-03-19 07:48:00,1.2,-6.3,29.88,NNW,337,1.1,-999.0,70,-99.99,,,0.00,Acu-Link.com,2013-03-19 12:48:00,
2013-03-19 08:03:00,1.2,-6.6,29.89,North,0,1.1,-999.0,69,-99.99,,,0.00,Acu-Link.com,2013-03-19 13:03:00,
2013-03-19 08:18:00,1.9,-5.9,29.89,NE,45,2.2,-999.0,69,-99.99,,,0.00,Acu-Link.com,2013-03-19 13:18:00,
2013-03-19 08:34:00,2.7,-5.7,29.90,NNW,337,3.2,-999.0,67,-99.99,,,0.00,Acu-Link.com,2013-03-19 13:34:00,
2013-03-19 08:49:00,3.7,-5.4,29.90,SSW,202,3.2,-999.0,65,-99.99,,,0.00,Acu-Link.com,2013-03-19 13:49:00,
2013-03-19 09:04:00,4.5,-5.0,29.91,North,0,0.0,-999.0,64,-99.99,,,0.00,Acu-Link.com,2013-03-19 14:04:00,
2013-03-19 09:19:00,5.2,-4.9,29.91,NNW,337,5.3,-999.0,62,-99.99,,,0.00,Acu-Link.com,2013-03-19 14:19:00,
2013-03-19 09:34:00,6.3,-4.2,29.92,West,270,2.2,-999.0,61,-99.99,,,0.00,Acu-Link.com,2013-03-19 14:34:00,
2013-03-19 09:49:00,7.2,-4.1,29.92,NNW,337,3.2,-999.0,59,-99.99,,,0.00,Acu-Link.com,2013-03-19 14:49:00,
2013-03-19 10:04:00,8.1,-3.6,29.92,NNW,337,4.2,-999.0,58,-99.99,,,0.00,Acu-Link.com,2013-03-19 15:04:00,
2013-03-19 10:20:00,9.0,-3.1,29.93,SSE,157,2.2,-999.0,57,-99.99,,,0.00,Acu-Link.com,2013-03-19 15:20:00,
2013-03-19 10:35:00,10.2,-2.3,29.93,NE,45,4.2,-999.0,56,-99.99,,,0.00,Acu-Link.com,2013-03-19 15:35:00,
2013-03-19 10:50:00,11.1,-2.3,29.92,South,180,5.8,-999.0,54,-99.99,,,0.00,Acu-Link.com,2013-03-19 15:50:00,
2013-03-19 11:36:00,13.8,-1.8,29.94,SSE,157,4.7,-999.0,49,-99.99,,,0.00,Acu-Link.com,2013-03-19 16:36:00,
2013-03-19 11:52:00,14.9,-0.8,29.94,East,90,5.8,-999.0,49,-99.99,,,0.00,Acu-Link.com,2013-03-19 16:52:00,
2013-03-19 12:07:00,15.6,-0.1,29.94,SSE,157,3.7,-999.0,49,-99.99,,,0.00,Acu-Link.com,2013-03-19 17:07:00,
2013-03-19 12:22:00,16.3,-0.4,29.95,SSW,202,4.2,-999.0,47,-99.99,,,0.00,Acu-Link.com,2013-03-19 17:22:00,
2013-03-19 12:37:00,17.2,0.0,29.95,SW,225,2.2,-999.0,46,-99.99,,,0.00,Acu-Link.com,2013-03-19 17:37:00,
2013-03-19 12:52:00,17.6,-0.6,29.95,WNW,292,7.8,-999.0,44,-99.99,,,0.00,Acu-Link.com,2013-03-19 17:52:00,
2013-03-19 13:08:00,18.9,1.1,29.95,SSW,202,3.7,-999.0,45,-99.99,,,0.00,Acu-Link.com,2013-03-19 18:08:00,
2013-03-19 13:23:00,19.4,0.6,29.95,West,270,6.8,-999.0,43,-99.99,,,0.00,Acu-Link.com,2013-03-19 18:23:00,
2013-03-19 13:38:00,19.8,1.0,29.96,North,0,4.2,-999.0,43,-99.99,,,0.00,Acu-Link.com,2013-03-19 18:38:00,
2013-03-19 13:53:00,20.1,0.7,29.95,WNW,292,6.3,-999.0,42,-99.99,,,0.00,Acu-Link.com,2013-03-19 18:53:00,
2013-03-19 14:08:00,20.5,1.1,29.96,ESE,112,8.3,-999.0,42,-99.99,,,0.00,Acu-Link.com,2013-03-19 19:08:00,
2013-03-19 14:23:00,21.6,2.1,29.96,SW,225,2.7,-999.0,42,-99.99,,,0.00,Acu-Link.com,2013-03-19 19:23:00,
2013-03-19 14:38:00,21.0,0.5,29.97,NNE,22,6.3,-999.0,40,-99.99,,,0.00,Acu-Link.com,2013-03-19 19:38:00,
2013-03-19 14:54:00,23.5,1.7,29.97,ESE,112,2.7,-999.0,38,-99.99,,,0.00,Acu-Link.com,2013-03-19 19:54:00,
2013-03-19 15:09:00,26.1,1.0,29.97,West,270,4.2,-999.0,33,-99.99,,,0.00,Acu-Link.com,2013-03-19 20:09:00,
2013-03-19 15:24:00,26.6,1.4,29.97,SSW,202,2.2,-999.0,33,-99.99,,,0.00,Acu-Link.com,2013-03-19 20:24:00,
2013-03-19 15:40:00,27.3,0.7,29.98,East,90,5.3,-999.0,31,-99.99,,,0.00,Acu-Link.com,2013-03-19 20:40:00,
2013-03-19 15:55:00,26.4,-1.5,29.98,NE,45,4.2,-999.0,29,-99.99,,,0.00,Acu-Link.com,2013-03-19 20:55:00,
2013-03-19 16:10:00,26.2,2.3,29.98,SW,225,3.7,-999.0,35,-99.99,,,0.00,Acu-Link.com,2013-03-19 21:10:00,
2013-03-19 16:25:00,25.7,0.6,29.99,East,90,2.7,-999.0,33,-99.99,,,0.00,Acu-Link.com,2013-03-19 21:25:00,
2013-03-19 16:41:00,24.4,0.7,29.99,SE,135,4.2,-999.0,35,-99.99,,,0.00,Acu-Link.com,2013-03-19 21:41:00,
2013-03-19 17:11:00,21.6,-3.0,30.01,East,90,7.8,-999.0,33,-99.99,,,0.00,Acu-Link.com,2013-03-19 22:11:00,
2013-03-19 17:26:00,20.3,-4.2,30.02,NE,45,2.7,-999.0,33,-99.99,,,0.00,Acu-Link.com,2013-03-19 22:26:00,
2013-03-19 17:42:00,20.5,-5.3,30.03,SSW,202,5.3,-999.0,31,-99.99,,,0.00,Acu-Link.com,2013-03-19 22:42:00,
2013-03-19 17:57:00,20.1,-7.0,30.03,SW,225,7.3,-999.0,29,-99.99,,,0.00,Acu-Link.com,2013-03-19 22:57:00,
2013-03-19 18:12:00,18.5,-8.4,30.04,East,90,4.2,-999.0,29,-99.99,,,0.00,Acu-Link.com,2013-03-19 23:12:00,
2013-03-19 18:27:00,16.3,-7.7,30.04,East,90,5.8,-999.0,33,-99.99,,,0.00,Acu-Link.com,2013-03-19 23:27:00,
2013-03-19 18:42:00,15.6,-9.6,30.05,South,180,4.7,-999.0,31,-99.99,,,0.00,Acu-Link.com,2013-03-19 23:42:00,
2013-03-19 18:58:00,14.7,-6.8,30.05,NE,45,3.7,-999.0,37,-99.99,,,0.00,Acu-Link.com,2013-03-19 23:58:00,
2013-03-19 19:13:00,13.6,-8.3,30.06,NNW,337,3.7,-999.0,36,-99.99,,,0.00,Acu-Link.com,2013-03-20 00:13:00,
2013-03-19 19:28:00,12.7,-7.5,30.06,SW,225,2.7,-999.0,39,-99.99,,,0.00,Acu-Link.com,2013-03-20 00:28:00,
2013-03-19 19:44:00,11.5,-7.6,30.07,ESE,112,4.7,-999.0,41,-99.99,,,0.00,Acu-Link.com,2013-03-20 00:44:00,
2013-03-19 19:59:00,10.9,-8.6,30.08,West,270,3.7,-999.0,40,-99.99,,,0.00,Acu-Link.com,2013-03-20 00:59:00,
2013-03-19 20:14:00,10.6,-9.4,30.09,NE,45,1.7,-999.0,39,-99.99,,,0.00,Acu-Link.com,2013-03-20 01:14:00,
2013-03-19 20:29:00,9.7,-9.7,30.09,NNW,337,2.7,-999.0,40,-99.99,,,0.00,Acu-Link.com,2013-03-20 01:29:00,
2013-03-19 20:44:00,9.1,-10.8,30.09,North,0,2.7,-999.0,39,-99.99,,,0.00,Acu-Link.com,2013-03-20 01:44:00,
2013-03-19 20:59:00,9.0,-10.4,30.09,NNW,337,2.7,-999.0,40,-99.99,,,0.00,Acu-Link.com,2013-03-20 01:59:00,
2013-03-19 21:14:00,8.1,-10.2,30.09,North,0,1.7,-999.0,42,-99.99,,,0.00,Acu-Link.com,2013-03-20 02:14:00,
2013-03-19 21:29:00,7.7,-10.1,30.09,SE,135,3.7,-999.0,43,-99.99,,,0.00,Acu-Link.com,2013-03-20 02:29:00,
2013-03-19 21:45:00,7.3,-10.4,30.09,NNW,337,2.7,-999.0,43,-99.99,,,0.00,Acu-Link.com,2013-03-20 02:45:00,
2013-03-19 22:00:00,7.0,-10.3,30.10,ESE,112,4.7,-999.0,44,-99.99,,,0.00,Acu-Link.com,2013-03-20 03:00:00,
2013-03-19 22:15:00,6.1,-10.6,30.10,West,270,2.7,-999.0,45,-99.99,,,0.00,Acu-Link.com,2013-03-20 03:15:00,
2013-03-19 22:30:00,6.1,-11.1,30.10,ESE,112,1.7,-999.0,44,-99.99,,,0.00,Acu-Link.com,2013-03-20 03:30:00,
2013-03-19 22:46:00,5.4,-10.8,30.10,WNW,292,2.7,-999.0,46,-99.99,,,0.00,Acu-Link.com,2013-03-20 03:46:00,
2013-03-19 23:16:00,4.8,-10.5,30.10,SW,225,2.7,-999.0,48,-99.99,,,0.00,Acu-Link.com,2013-03-20 04:16:00,
2013-03-19 23:31:00,4.3,-10.6,30.10,WSW,247,1.7,-999.0,49,-99.99,,,0.00,Acu-Link.com,2013-03-20 04:31:00,
2013-03-19 23:46:00,3.4,-11.0,30.10,North,0,1.7,-999.0,50,-99.99,,,0.00,Acu-Link.com,2013-03-20 04:46:00,